{"data":{"norad_id":50203,"intl_designator":"2021-125AZ","name":"STARLINK-3257","alt_names":[],"object_type":"PAYLOAD","status":"ACTIVE","operator":null,"country":"US","launch_date":"2021-12-18","launch_site_code":"AFWTR","launch_vehicle":null,"mission":null,"orbit_class":"UNKNOWN","rcs_meters":null,"size_class":null,"mass_kg":null,"dimensions":null,"purposes":["comms"],"wikipedia_slug":null,"has_3d_model":false,"image_url":null,"decayed_at":null,"tle_current":{"epoch":"2026-05-24T16:00:50.635008Z","epoch_age_seconds":97798,"freshness":"FRESH","line1":"1 50203U 21125AZ  26144.66725272 -.00000372  00000+0 -52544-5 0  9993","line2":"2 50203  53.2147 258.1312 0001509  89.7306 270.3859 15.08838798248267","mean_motion":15.08838798,"eccentricity":0.0001509,"inclination_deg":53.2147,"raan_deg":258.1312,"arg_perigee_deg":89.7306,"mean_anomaly_deg":270.3859,"bstar":-5.2544e-6,"rev_number":24826,"period_min":95.437630707054,"perigee_km":538.70315429457,"apogee_km":540.79097170478,"semimajor_km":6917.8840629997,"source":"CELESTRAK","updated_at":"2026-05-25T13:38:16.873447Z"}}}